Location: Newark
(34.2320°N, 82.8945°W)
Time: 07:46:13
(UTC+00:00)

Envisat - Visible Passes

Search period start: 05 April 2020 00:00
Search period end: 15 April 2020 00:00
Orbit: 764 x 766 km, 98.1° (Epoch: 04 April)

Date Brightness Start Highest point End Pass type
(mag) Time Alt. Az. Time Alt. Az. Time Alt. Az.
05 Apr 6.3 10:43:25 10° ENE 10:45:42 13° E 10:48:00 10° ESE visible
07 Apr 6.1 00:35:31 10° SW 00:38:14 14° W 00:40:56 10° WNW visible
10 Apr 5.9 00:23:18 10° SW 00:26:50 19° W 00:30:22 10° NW visible
